Home > Weather > Pori > Past weeks

Flag for Finland Past Weather in Pori, Finland — Yesterday and Last 2 Weeks

Now
75 °F

Passing clouds.


Feels Like: 77 °F
Forecast: 60 / 71 °F
Wind: 7 mph from West

Location: Pori Airport

Current Time: Jul 26, 2016 at 7:08:07 PM

Latest Report: Jul 26, 2016 at 6:20 PM


Visibility: N/A

Pressure: 29.92 "Hg

Humidity: 61%

Dew Point: 61 °F

Location of PoriLocation

Past Weather in Pori — Graph

°F

Pori Temperature Yesterday

Maximum temperature yesterday: 77 °F (at 2:50 PM)
Minimum temperature yesterday: 55 °F (at 3:50 AM)
Average temperature yesterday: 67 °F

High & Low Weather Summary for the Past Weeks

 TemperatureHumidityPressure
High77 °F (Jul 25, 2:50 PM)100% (Jul 11, 11:50 PM)30.15 "Hg (Jul 11, 11:50 PM)
Low48 °F (Jul 20, 4:20 AM)34% (Jul 21, 3:50 PM)29.39 "Hg (Jul 12, 3:20 AM)
Average63 °F76%29.88 "Hg
* Reported Jul 11 5:20 PM — Jul 26 5:50 PM, Pori, Weather by CustomWeather, © 2016

Note: Actual official high and low records may vary slightly from our data, if they occured in-between our weather recording intervals... More about our weather records

Advertising

Pori Weather History for the Previous 24 Hours

Scroll right to see more
 ConditionsComfort  
Time TempWeatherWind HumidityBarometerVisibility
5:50 PM
Tue, Jul 26
75 °FSunny.9 mph57%29.92 "Hg10 mi
5:20 PM75 °FSunny.9 mph61%29.92 "Hg10 mi
4:50 PM75 °FSunny.10 mph57%29.95 "Hg10 mi
4:20 PM75 °FSunny.12 mph50%29.95 "Hg10 mi
3:50 PM75 °FPassing clouds.10 mph50%29.95 "HgN/A
3:20 PM77 °FSunny.9 mph51%29.95 "Hg10 mi
2:50 PM77 °FSunny.8 mph51%29.98 "Hg10 mi
2:20 PM77 °FSunny.8 mph51%29.98 "Hg10 mi
1:50 PM75 °FPassing clouds.10 mph57%29.98 "HgN/A
1:20 PM77 °FPassing clouds.5 mph51%29.98 "HgN/A
12:50 PM77 °FSunny.3 mph51%29.98 "Hg10 mi
12:20 PM77 °FSunny.2 mph51%29.98 "Hg10 mi
11:50 AM77 °FPassing clouds.5 mph54%30.01 "HgN/A
11:20 AM77 °FPassing clouds.5 mph54%30.01 "HgN/A
10:50 AM73 °FPassing clouds.5 mph61%30.01 "HgN/A
10:20 AM72 °FPassing clouds.3 mph65%30.01 "HgN/A
9:50 AM72 °FPassing clouds.6 mph65%30.01 "HgN/A
9:20 AM70 °FPassing clouds.5 mph69%30.01 "HgN/A
8:50 AM68 °FPassing clouds.5 mph78%30.01 "HgN/A
8:20 AM66 °FPassing clouds.5 mph83%30.01 "HgN/A
7:50 AM63 °FSunny.6 mph88%30.01 "Hg10 mi
7:20 AM61 °FSunny.5 mph94%30.01 "Hg10 mi
6:50 AM59 °FSunny.3 mph94%30.01 "Hg10 mi
6:20 AM59 °FSunny.3 mph94%30.01 "Hg10 mi
5:50 AM57 °FSunny.2 mph94%30.01 "Hg10 mi
5:20 AM57 °FPassing clouds.2 mph94%30.01 "HgN/A
4:50 AM57 °FPassing clouds.1 mph100%30.01 "HgN/A
4:20 AM57 °FPassing clouds.2 mph94%30.01 "HgN/A
3:50 AM57 °FClear.2 mph94%30.01 "Hg10 mi
3:20 AM59 °FPassing clouds.3 mph94%30.01 "HgN/A
2:50 AM59 °FClear.1 mph94%30.04 "Hg10 mi
2:20 AM59 °FPassing clouds.No wind94%30.04 "HgN/A
1:50 AM59 °FClear.No wind94%30.04 "Hg10 mi
1:20 AM61 °FClear.No wind94%30.04 "Hg10 mi
12:50 AM61 °FClear.1 mph94%30.04 "Hg10 mi
12:20 AM61 °FClear.1 mph94%30.04 "Hg10 mi
11:50 PM
Mon, Jul 25
61 °FClear.No wind94%30.04 "Hg10 mi
11:20 PM63 °FSunny.1 mph94%30.04 "Hg10 mi
10:50 PM64 °FSunny.1 mph88%30.04 "Hg10 mi
10:20 PM66 °FSunny.2 mph78%30.04 "Hg10 mi
9:50 PM70 °FSunny.1 mph69%30.04 "Hg10 mi
9:20 PM72 °FSunny.3 mph65%30.04 "Hg10 mi
8:50 PM72 °FSunny.5 mph65%30.04 "Hg10 mi
8:20 PM72 °FSunny.7 mph65%30.04 "Hg10 mi
7:50 PM73 °FSunny.7 mph61%30.04 "Hg10 mi
7:20 PM73 °FSunny.7 mph61%30.04 "Hg10 mi
Weather by CustomWeather, © 2016

See weather overviewHow to use our weather pages